Time,TemperatureF,DewpointF,PressureIn,WindDirection,WindDirectionDegrees,WindSpeedMPH,WindSpeedGustMPH,Humidity,HourlyPrecipIn,Conditions,Clouds,dailyrainin,SolarRadiationWatts/m^2,SoftwareType,DateUTC
2013-07-21 00:01:00,79.3,74.0,30.03,SSW,211,4.5,6.9,84,0.00,CLR,OVC,0.03,0.0,WeatherDisplay:10.37,2013-07-21 04:01:00,
2013-07-21 00:06:00,79.3,74.0,30.04,SSW,196,2.6,6.0,84,0.00,RA,OVC,0.00,0.0,WeatherDisplay:10.37,2013-07-21 04:06:00,
2013-07-21 00:11:00,79.3,74.0,30.03,SSE,165,2.8,6.9,84,0.00,RA,OVC,0.00,0.0,WeatherDisplay:10.37,2013-07-21 04:11:00,
2013-07-21 00:16:00,79.3,74.0,30.04,SSW,202,3.4,6.9,84,0.00,CLR,OVC,0.00,0.0,WeatherDisplay:10.37,2013-07-21 04:16:00,
2013-07-21 00:21:00,79.2,73.9,30.04,SW,229,2.1,6.9,84,0.00,CLR,OVC,0.00,0.0,WeatherDisplay:10.37,2013-07-21 04:21:00,
2013-07-21 00:26:00,79.2,74.3,30.04,South,184,4.6,8.1,85,0.00,CLR,OVC,0.00,0.0,WeatherDisplay:10.37,2013-07-21 04:26:00,
2013-07-21 00:31:00,79.3,74.4,30.04,South,172,3.7,5.8,85,0.00,CLR,OVC,0.00,0.0,WeatherDisplay:10.37,2013-07-21 04:31:00,
2013-07-21 00:36:00,79.4,74.5,30.04,SSW,213,0.8,3.5,85,0.00,CLR,OVC,0.00,0.0,WeatherDisplay:10.37,2013-07-21 04:36:00,
2013-07-21 00:41:00,79.4,74.5,30.04,West,261,6.2,10.4,85,0.00,CLR,OVC,0.00,0.0,WeatherDisplay:10.37,2013-07-21 04:41:00,
2013-07-21 00:46:00,79.5,74.2,30.04,South,179,7.8,12.7,84,0.00,CLR,OVC,0.00,0.0,WeatherDisplay:10.37,2013-07-21 04:46:00,
2013-07-21 00:51:00,79.5,74.2,30.02,South,182,4.8,11.0,84,0.00,CLR,OVC,0.00,0.0,WeatherDisplay:10.37,2013-07-21 04:51:00,
2013-07-21 00:56:00,79.5,73.9,30.03,South,190,5.1,9.2,83,0.00,CLR,OVC,0.00,0.0,WeatherDisplay:10.37,2013-07-21 04:56:00,
2013-07-21 01:01:00,79.3,73.3,30.03,SW,227,3.0,6.9,82,0.00,CLR,OVC,0.00,0.0,WeatherDisplay:10.37,2013-07-21 05:01:00,
2013-07-21 01:06:00,79.2,72.1,30.03,SW,227,6.9,10.4,79,0.00,CLR,OVC,0.00,0.0,WeatherDisplay:10.37,2013-07-21 05:06:00,
2013-07-21 01:11:00,79.2,71.4,30.02,West,273,6.0,6.9,77,0.00,CLR,OVC,0.00,0.0,WeatherDisplay:10.37,2013-07-21 05:11:00,
2013-07-21 01:16:00,79.1,70.9,30.02,South,190,6.8,12.7,76,0.00,CLR,OVC,0.00,0.0,WeatherDisplay:10.37,2013-07-21 05:16:00,
2013-07-21 01:21:00,79.0,70.8,30.03,West,259,5.2,11.5,76,0.00,CLR,OVC,0.00,0.0,WeatherDisplay:10.37,2013-07-21 05:21:00,
2013-07-21 01:26:00,78.8,70.6,30.02,SW,219,6.2,11.5,76,0.00,CLR,OVC,0.00,0.0,WeatherDisplay:10.37,2013-07-21 05:26:00,
2013-07-21 01:31:00,78.6,70.8,30.02,SW,219,2.7,4.0,77,0.00,CLR,OVC,0.00,0.0,WeatherDisplay:10.37,2013-07-21 05:31:00,
2013-07-21 01:36:00,78.5,70.7,30.02,SSE,161,3.2,6.0,77,0.00,CLR,OVC,0.00,0.0,WeatherDisplay:10.37,2013-07-21 05:36:00,
2013-07-21 01:41:00,78.2,70.8,30.02,SSW,207,0.8,3.5,78,0.00,CLR,OVC,0.00,0.0,WeatherDisplay:10.37,2013-07-21 05:41:00,
2013-07-21 01:46:00,78.0,70.6,30.02,SSW,194,2.7,8.1,78,0.00,CLR,OVC,0.00,0.0,WeatherDisplay:10.37,2013-07-21 05:46:00,
2013-07-21 01:51:00,77.8,70.8,30.02,SW,226,0.9,3.5,79,0.00,CLR,OVC,0.00,0.0,WeatherDisplay:10.37,2013-07-21 05:51:00,
2013-07-21 01:56:00,77.7,70.7,30.02,WNW,290,2.3,4.6,79,0.00,CLR,OVC,0.00,0.0,WeatherDisplay:10.37,2013-07-21 05:56:00,
2013-07-21 02:01:00,77.5,70.8,30.02,SSW,197,2.5,4.6,80,0.00,CLR,OVC,0.00,0.0,WeatherDisplay:10.37,2013-07-21 06:01:00,
2013-07-21 02:06:00,77.4,70.7,30.02,SW,232,3.9,5.8,80,0.00,CLR,OVC,0.00,0.0,WeatherDisplay:10.37,2013-07-21 06:06:00,
2013-07-21 02:12:00,77.3,70.6,30.02,WSW,238,1.1,3.5,80,0.00,CLR,OVC,0.00,0.0,WeatherDisplay:10.37,2013-07-21 06:12:00,
2013-07-21 02:17:00,77.3,70.6,30.01,SW,215,3.8,5.8,80,0.00,CLR,OVC,0.00,0.0,WeatherDisplay:10.37,2013-07-21 06:17:00,
2013-07-21 02:22:00,77.2,70.5,30.01,SW,227,1.0,3.0,80,0.00,CLR,OVC,0.00,0.0,WeatherDisplay:10.37,2013-07-21 06:22:00,
2013-07-21 02:27:00,77.2,70.9,30.01,SW,229,2.0,7.0,81,0.00,CLR,OVC,0.00,0.0,WeatherDisplay:10.37,2013-07-21 06:27:00,
2013-07-21 02:32:00,77.1,70.8,30.01,SW,219,3.6,5.8,81,0.00,CLR,OVC,0.00,0.0,WeatherDisplay:10.37,2013-07-21 06:32:00,
2013-07-21 02:37:00,77.1,70.8,30.01,South,180,1.5,4.6,81,0.00,CLR,OVC,0.00,0.0,WeatherDisplay:10.37,2013-07-21 06:37:00,
2013-07-21 02:42:00,77.1,70.8,30.01,SSE,157,2.3,4.6,81,0.00,CLR,OVC,0.00,0.0,WeatherDisplay:10.37,2013-07-21 06:42:00,
2013-07-21 02:47:00,77.1,70.8,30.01,SW,225,2.0,3.5,81,0.00,CLR,OVC,0.00,0.0,WeatherDisplay:10.37,2013-07-21 06:47:00,
2013-07-21 02:52:00,77.1,70.8,30.01,SW,232,1.9,3.5,81,0.00,CLR,OVC,0.00,0.0,WeatherDisplay:10.37,2013-07-21 06:52:00,
2013-07-21 02:57:00,77.1,71.2,30.01,SW,214,2.0,4.6,82,0.00,CLR,OVC,0.00,0.0,WeatherDisplay:10.37,2013-07-21 06:57:00,
2013-07-21 03:02:00,77.1,71.2,30.01,SSW,194,2.4,5.8,82,0.00,CLR,OVC,0.00,0.0,WeatherDisplay:10.37,2013-07-21 07:02:00,
2013-07-21 03:07:00,77.1,71.2,30.00,SW,218,3.9,8.1,82,0.00,CLR,OVC,0.00,0.0,WeatherDisplay:10.37,2013-07-21 07:07:00,
2013-07-21 03:12:00,77.1,71.5,30.00,SW,223,1.6,4.6,83,0.00,CLR,OVC,0.00,0.0,WeatherDisplay:10.37,2013-07-21 07:12:00,
2013-07-21 03:17:00,77.1,71.5,30.00,SSW,200,0.7,3.5,83,0.00,CLR,OVC,0.00,0.0,WeatherDisplay:10.37,2013-07-21 07:17:00,
2013-07-21 03:22:00,77.1,71.5,30.00,SSW,200,2.0,3.5,83,0.00,CLR,OVC,0.00,0.0,WeatherDisplay:10.37,2013-07-21 07:22:00,
2013-07-21 03:27:00,77.1,71.9,30.00,WSW,238,3.2,6.9,84,0.00,CLR,OVC,0.00,0.0,WeatherDisplay:10.37,2013-07-21 07:27:00,
2013-07-21 03:32:00,77.1,71.9,30.00,West,267,3.2,4.6,84,0.00,CLR,OVC,0.00,0.0,WeatherDisplay:10.37,2013-07-21 07:32:00,
2013-07-21 03:37:00,77.1,71.9,30.00,SW,224,2.2,4.6,84,0.00,CLR,OVC,0.00,0.0,WeatherDisplay:10.37,2013-07-21 07:37:00,
2013-07-21 03:42:00,77.1,71.9,30.00,South,188,2.1,3.5,84,0.00,CLR,OVC,0.00,0.0,WeatherDisplay:10.37,2013-07-21 07:42:00,
2013-07-21 03:47:00,77.2,72.3,30.00,SSW,211,3.6,5.8,85,0.00,CLR,OVC,0.00,0.0,WeatherDisplay:10.37,2013-07-21 07:47:00,
2013-07-21 03:52:00,77.2,72.3,30.00,SW,221,1.2,3.5,85,0.00,CLR,OVC,0.00,0.0,WeatherDisplay:10.37,2013-07-21 07:52:00,
2013-07-21 03:57:00,77.1,72.2,29.99,SSW,195,2.9,6.9,85,0.00,CLR,OVC,0.00,0.0,WeatherDisplay:10.37,2013-07-21 07:57:00,
2013-07-21 04:02:00,77.1,72.2,29.99,South,190,2.8,3.5,85,0.00,CLR,OVC,0.00,0.0,WeatherDisplay:10.37,2013-07-21 08:02:00,
2013-07-21 04:07:00,77.0,72.5,29.99,SW,224,1.2,2.0,86,0.00,CLR,OVC,0.00,0.0,WeatherDisplay:10.37,2013-07-21 08:07:00,
2013-07-21 04:12:00,76.9,72.4,29.99,SW,214,1.0,3.5,86,0.00,CLR,OVC,0.00,0.0,WeatherDisplay:10.37,2013-07-21 08:12:00,
2013-07-21 04:17:00,76.9,72.4,29.99,SSW,192,2.4,3.5,86,0.00,CLR,OVC,0.00,0.0,WeatherDisplay:10.37,2013-07-21 08:17:00,
2013-07-21 04:22:00,76.8,72.6,29.99,SSE,156,4.1,5.8,87,0.00,CLR,OVC,0.00,0.0,WeatherDisplay:10.37,2013-07-21 08:22:00,
2013-07-21 04:27:00,76.8,72.6,29.99,SW,219,0.8,2.0,87,0.00,CLR,OVC,0.00,0.0,WeatherDisplay:10.37,2013-07-21 08:27:00,
2013-07-21 04:32:00,76.8,72.6,29.99,SSW,207,1.9,3.5,87,0.00,CLR,OVC,0.00,0.0,WeatherDisplay:10.37,2013-07-21 08:32:00,
2013-07-21 04:37:00,76.8,72.6,29.99,SSW,199,0.8,2.3,87,0.00,CLR,OVC,0.00,0.0,WeatherDisplay:10.37,2013-07-21 08:37:00,
2013-07-21 04:42:00,76.7,72.5,29.99,SSW,212,0.7,2.3,87,0.00,CLR,OVC,0.00,0.0,WeatherDisplay:10.37,2013-07-21 08:42:00,
2013-07-21 04:47:00,76.7,72.5,29.98,SSW,199,0.7,4.6,87,0.00,CLR,OVC,0.00,0.0,WeatherDisplay:10.37,2013-07-21 08:47:00,
2013-07-21 04:52:00,76.7,72.5,29.98,South,185,1.2,3.5,87,0.00,CLR,OVC,0.00,0.0,WeatherDisplay:10.37,2013-07-21 08:52:00,
2013-07-21 04:57:00,76.6,72.4,29.98,SW,223,1.5,3.5,87,0.00,CLR,OVC,0.00,0.0,WeatherDisplay:10.37,2013-07-21 08:57:00,
2013-07-21 05:02:00,76.6,72.8,29.99,South,184,0.5,1.1,88,0.00,CLR,OVC,0.00,0.0,WeatherDisplay:10.37,2013-07-21 09:02:00,
2013-07-21 05:07:00,76.5,72.7,29.99,South,184,0.0,0.0,88,0.00,CLR,OVC,0.00,0.0,WeatherDisplay:10.37,2013-07-21 09:07:00,
2013-07-21 05:12:00,76.4,72.6,29.98,South,172,0.0,0.0,88,0.00,CLR,OVC,0.00,0.0,WeatherDisplay:10.37,2013-07-21 09:12:00,
2013-07-21 05:17:00,76.3,72.5,29.98,South,172,0.0,0.0,88,0.00,CLR,OVC,0.00,0.0,WeatherDisplay:10.37,2013-07-21 09:17:00,
2013-07-21 05:22:00,76.1,72.3,29.99,South,172,0.0,0.0,88,0.00,CLR,OVC,0.00,0.0,WeatherDisplay:10.37,2013-07-21 09:22:00,
2013-07-21 05:27:00,76.0,72.5,29.99,South,172,0.0,0.0,89,0.00,CLR,OVC,0.00,0.0,WeatherDisplay:10.37,2013-07-21 09:27:00,
2013-07-21 05:32:00,75.7,72.2,29.99,South,172,0.0,0.0,89,0.00,CLR,OVC,0.00,0.0,WeatherDisplay:10.37,2013-07-21 09:32:00,
2013-07-21 05:37:00,75.5,72.4,29.99,South,172,0.0,0.0,90,0.00,CLR,OVC,0.00,0.0,WeatherDisplay:10.37,2013-07-21 09:37:00,
2013-07-21 05:42:00,75.3,72.2,29.99,South,172,0.0,0.0,90,0.00,CLR,OVC,0.00,0.0,WeatherDisplay:10.37,2013-07-21 09:42:00,
2013-07-21 05:47:00,75.2,72.4,30.00,South,173,0.0,0.0,91,0.00,CLR,OVC,0.00,0.0,WeatherDisplay:10.37,2013-07-21 09:47:00,
2013-07-21 05:52:00,75.1,72.3,30.00,South,173,0.0,0.0,91,0.00,CLR,OVC,0.00,0.0,WeatherDisplay:10.37,2013-07-21 09:52:00,
2013-07-21 05:57:00,75.0,72.2,29.99,South,173,0.0,0.0,91,0.00,CLR,OVC,0.00,0.0,WeatherDisplay:10.37,2013-07-21 09:57:00,
2013-07-21 06:02:00,74.9,72.1,30.00,South,173,0.0,0.0,91,0.00,OVC,,0.00,0.0,WeatherDisplay:10.37,2013-07-21 10:02:00,
2013-07-21 06:07:00,74.8,72.3,30.00,South,173,0.0,0.0,92,0.00,OVC,,0.00,0.0,WeatherDisplay:10.37,2013-07-21 10:07:00,
2013-07-21 06:12:00,74.7,72.2,30.00,South,169,0.0,0.0,92,0.00,OVC,,0.00,0.0,WeatherDisplay:10.37,2013-07-21 10:12:00,
2013-07-21 06:17:00,74.6,72.1,30.00,South,169,0.0,0.0,92,0.00,OVC,,0.00,0.0,WeatherDisplay:10.37,2013-07-21 10:17:00,
2013-07-21 06:22:00,74.6,72.1,30.00,South,169,0.0,0.0,92,0.00,OVC,,0.00,0.0,WeatherDisplay:10.37,2013-07-21 10:22:00,
2013-07-21 06:27:00,74.5,72.0,30.00,South,169,0.0,0.0,92,0.00,OVC,,0.00,0.0,WeatherDisplay:10.37,2013-07-21 10:27:00,
2013-07-21 06:32:00,74.4,71.9,30.00,South,173,0.0,0.0,92,0.00,OVC,,0.00,0.0,WeatherDisplay:10.37,2013-07-21 10:32:00,
2013-07-21 06:37:00,74.4,72.2,30.01,SW,224,0.0,0.0,93,0.00,OVC,,0.00,0.0,WeatherDisplay:10.37,2013-07-21 10:37:00,
2013-07-21 06:42:00,74.4,71.9,30.01,SW,232,0.7,1.1,92,0.00,OVC,,0.00,0.0,WeatherDisplay:10.37,2013-07-21 10:42:00,
2013-07-21 06:47:00,74.6,72.1,30.01,WSW,256,0.1,1.1,92,0.00,OVC,,0.00,0.0,WeatherDisplay:10.37,2013-07-21 10:47:00,
2013-07-21 06:52:00,74.8,72.0,30.00,WSW,249,0.6,2.3,91,0.00,OVC,,0.00,0.0,WeatherDisplay:10.37,2013-07-21 10:52:00,
2013-07-21 06:57:00,75.2,72.1,30.00,WSW,238,3.0,3.5,90,0.00,OVC,,0.00,0.0,WeatherDisplay:10.37,2013-07-21 10:57:00,
2013-07-21 07:02:00,75.5,72.0,30.01,SW,227,1.4,4.6,89,0.00,OVC,,0.00,0.0,WeatherDisplay:10.37,2013-07-21 11:02:00,
2013-07-21 07:07:00,75.9,72.4,30.01,SW,232,0.6,2.3,89,0.00,OVC,,0.00,0.0,WeatherDisplay:10.37,2013-07-21 11:07:00,
2013-07-21 07:12:00,76.2,72.4,30.01,SW,236,1.5,2.3,88,0.00,OVC,,0.00,0.0,WeatherDisplay:10.37,2013-07-21 11:12:00,
2013-07-21 07:17:00,76.5,72.3,30.01,WNW,302,2.5,4.6,87,0.00,OVC,,0.00,0.0,WeatherDisplay:10.37,2013-07-21 11:17:00,
2013-07-21 07:22:00,76.8,72.6,30.01,SW,236,0.4,2.3,87,0.00,OVC,,0.00,0.0,WeatherDisplay:10.37,2013-07-21 11:22:00,
2013-07-21 07:27:00,77.1,72.2,30.01,SSW,212,3.7,6.9,85,0.00,OVC,,0.00,0.0,WeatherDisplay:10.37,2013-07-21 11:27:00,
2013-07-21 07:32:00,77.3,72.4,30.01,SW,221,3.1,5.8,85,0.00,OVC,,0.00,0.0,WeatherDisplay:10.37,2013-07-21 11:32:00,
2013-07-21 07:37:00,77.4,72.5,30.01,SW,232,2.1,4.6,85,0.00,OVC,,0.00,0.0,WeatherDisplay:10.37,2013-07-21 11:37:00,
2013-07-21 07:42:00,77.4,72.5,30.01,WSW,238,2.3,5.0,85,0.00,OVC,,0.00,0.0,WeatherDisplay:10.37,2013-07-21 11:42:00,
2013-07-21 07:47:00,77.6,72.7,30.01,SW,221,1.1,3.5,85,0.00,OVC,,0.00,0.0,WeatherDisplay:10.37,2013-07-21 11:47:00,
2013-07-21 07:52:00,78.0,73.1,30.02,WSW,242,2.1,3.5,85,0.00,OVC,,0.00,0.0,WeatherDisplay:10.37,2013-07-21 11:52:00,
2013-07-21 07:57:00,78.2,73.0,30.02,SW,231,0.1,1.1,84,0.00,OVC,,0.00,0.0,WeatherDisplay:10.37,2013-07-21 11:57:00,
2013-07-21 08:02:00,78.1,72.9,30.02,SW,215,0.0,1.1,84,0.00,OVC,,0.00,0.0,WeatherDisplay:10.37,2013-07-21 12:02:00,
2013-07-21 08:07:00,77.8,72.6,30.03,West,278,2.0,4.6,84,0.00,OVC,,0.00,0.0,WeatherDisplay:10.37,2013-07-21 12:07:00,
2013-07-21 08:12:00,77.4,72.5,30.03,NW,313,2.7,3.5,85,0.00,OVC,,0.00,0.0,WeatherDisplay:10.37,2013-07-21 12:12:00,
2013-07-21 08:18:00,77.0,72.1,30.03,WSW,245,3.3,5.8,85,0.00,OVC,,0.00,0.0,WeatherDisplay:10.37,2013-07-21 12:18:00,
2013-07-21 08:23:00,76.8,72.3,30.02,WSW,237,2.9,4.0,86,0.00,OVC,,0.00,0.0,WeatherDisplay:10.37,2013-07-21 12:23:00,
2013-07-21 08:28:00,76.7,72.5,30.03,West,269,2.4,4.6,87,0.00,OVC,,0.00,0.0,WeatherDisplay:10.37,2013-07-21 12:28:00,
2013-07-21 08:33:00,76.7,72.5,30.03,South,173,0.7,1.1,87,0.00,OVC,,0.00,0.0,WeatherDisplay:10.37,2013-07-21 12:33:00,
2013-07-21 08:38:00,76.7,72.5,30.03,SW,225,0.4,2.3,87,0.00,OVC,,0.00,0.0,WeatherDisplay:10.37,2013-07-21 12:38:00,
2013-07-21 08:43:00,76.7,72.5,30.03,NNW,345,3.6,6.9,87,0.00,OVC,,0.00,0.0,WeatherDisplay:10.37,2013-07-21 12:43:00,
2013-07-21 08:48:00,76.7,72.5,30.03,SW,221,2.4,4.0,87,0.00,OVC,,0.00,0.0,WeatherDisplay:10.37,2013-07-21 12:48:00,
2013-07-21 08:53:00,76.7,72.5,30.03,SSW,198,1.2,3.5,87,0.00,OVC,,0.00,0.0,WeatherDisplay:10.37,2013-07-21 12:53:00,
2013-07-21 08:58:00,76.8,72.6,30.03,SW,232,3.0,4.0,87,0.00,OVC,,0.00,0.0,WeatherDisplay:10.37,2013-07-21 12:58:00,
2013-07-21 09:03:00,76.9,72.4,30.03,SSW,200,3.5,5.8,86,0.00,OVC,,0.00,0.0,WeatherDisplay:10.37,2013-07-21 13:03:00,
2013-07-21 09:08:00,77.0,72.5,30.03,South,190,4.6,6.0,86,0.00,OVC,,0.00,0.0,WeatherDisplay:10.37,2013-07-21 13:08:00,
2013-07-21 09:13:00,77.0,72.5,30.03,SSE,164,2.0,4.6,86,0.00,OVC,,0.00,0.0,WeatherDisplay:10.37,2013-07-21 13:13:00,
2013-07-21 09:18:00,77.0,72.5,30.03,SW,219,1.4,3.0,86,0.00,OVC,,0.00,0.0,WeatherDisplay:10.37,2013-07-21 13:18:00,
2013-07-21 09:23:00,77.0,72.8,30.03,WSW,238,1.2,2.3,87,0.00,OVC,,0.00,0.0,WeatherDisplay:10.37,2013-07-21 13:23:00,
2013-07-21 09:28:00,77.1,72.9,30.03,WSW,240,0.7,2.3,87,0.00,OVC,,0.00,0.0,WeatherDisplay:10.37,2013-07-21 13:28:00,
2013-07-21 09:33:00,77.3,73.1,30.03,SW,235,2.1,9.2,87,0.00,OVC,,0.00,0.0,WeatherDisplay:10.37,2013-07-21 13:33:00,
2013-07-21 09:38:00,77.3,72.8,30.03,WSW,245,2.6,4.6,86,0.00,OVC,,0.00,0.0,WeatherDisplay:10.37,2013-07-21 13:38:00,
2013-07-21 09:43:00,77.3,73.1,30.03,WSW,240,2.8,4.6,87,0.00,OVC,,0.00,0.0,WeatherDisplay:10.37,2013-07-21 13:43:00,
2013-07-21 09:48:00,77.5,73.0,30.03,SSW,206,4.2,4.2,86,0.00,OVC,,0.00,0.0,WeatherDisplay:10.37,2013-07-21 13:48:00,
2013-07-21 09:53:00,77.8,73.3,30.03,SW,224,5.4,5.8,86,0.00,OVC,,0.00,0.0,WeatherDisplay:10.37,2013-07-21 13:53:00,
2013-07-21 09:58:00,77.9,73.0,30.03,SW,234,5.2,8.1,85,0.00,OVC,,0.00,0.0,WeatherDisplay:10.37,2013-07-21 13:58:00,
2013-07-21 10:03:00,78.0,73.1,30.03,SW,218,1.5,9.2,85,0.00,OVC,,0.00,0.0,WeatherDisplay:10.37,2013-07-21 14:03:00,
2013-07-21 10:08:00,78.1,73.2,30.03,SSW,213,2.4,5.0,85,0.00,OVC,,0.00,0.0,WeatherDisplay:10.37,2013-07-21 14:08:00,
2013-07-21 10:13:00,78.2,73.3,30.03,SSW,209,2.6,6.9,85,0.00,OVC,,0.00,0.0,WeatherDisplay:10.37,2013-07-21 14:13:00,
2013-07-21 10:18:00,78.3,73.1,30.03,West,265,1.0,6.9,84,0.00,OVC,,0.00,0.0,WeatherDisplay:10.37,2013-07-21 14:18:00,
2013-07-21 10:23:00,78.7,73.5,30.04,SW,228,0.9,3.5,84,0.00,OVC,,0.00,0.0,WeatherDisplay:10.37,2013-07-21 14:23:00,
2013-07-21 10:28:00,78.8,73.2,30.04,WSW,242,3.4,4.6,83,0.00,OVC,,0.00,0.0,WeatherDisplay:10.37,2013-07-21 14:28:00,
2013-07-21 10:33:00,78.7,73.1,30.04,West,267,2.6,6.9,83,0.00,OVC,,0.00,0.0,WeatherDisplay:10.37,2013-07-21 14:33:00,
2013-07-21 10:38:00,78.7,73.1,30.04,SW,215,3.6,9.2,83,0.00,OVC,,0.00,0.0,WeatherDisplay:10.37,2013-07-21 14:38:00,
2013-07-21 10:43:00,78.6,73.4,30.03,SW,215,3.7,6.9,84,0.00,OVC,,0.00,0.0,WeatherDisplay:10.37,2013-07-21 14:43:00,
2013-07-21 10:48:00,78.6,73.4,30.04,South,186,2.3,3.5,84,0.00,OVC,,0.00,0.0,WeatherDisplay:10.37,2013-07-21 14:48:00,
2013-07-21 10:53:00,78.6,73.4,30.04,SW,216,1.3,4.6,84,0.00,OVC,,0.00,0.0,WeatherDisplay:10.37,2013-07-21 14:53:00,
2013-07-21 10:58:00,78.9,73.7,30.04,WSW,250,2.8,5.0,84,0.00,OVC,,0.00,0.0,WeatherDisplay:10.37,2013-07-21 14:58:00,
2013-07-21 11:03:00,79.4,73.8,30.04,SSW,210,1.2,5.8,83,0.00,OVC,,0.00,0.0,WeatherDisplay:10.37,2013-07-21 15:03:00,
2013-07-21 11:08:00,79.9,73.9,30.04,WSW,257,2.1,4.0,82,0.00,OVC,,0.00,0.0,WeatherDisplay:10.37,2013-07-21 15:08:00,
2013-07-21 11:13:00,80.2,74.2,30.04,SW,216,1.0,3.5,82,0.00,OVC,,0.00,0.0,WeatherDisplay:10.37,2013-07-21 15:13:00,
2013-07-21 11:18:00,80.8,75.2,30.04,WSW,257,0.0,0.0,83,0.00,OVC,,0.00,0.0,WeatherDisplay:10.37,2013-07-21 15:18:00,
2013-07-21 11:23:00,81.0,74.2,30.04,WSW,238,3.3,5.0,80,0.00,OVC,,0.00,0.0,WeatherDisplay:10.37,2013-07-21 15:23:00,
2013-07-21 11:28:00,80.9,74.1,30.04,South,180,3.7,5.8,80,0.00,OVC,,0.00,0.0,WeatherDisplay:10.37,2013-07-21 15:28:00,
2013-07-21 11:33:00,81.2,74.4,30.03,SW,230,3.4,6.0,80,0.00,OVC,,0.00,0.0,WeatherDisplay:10.37,2013-07-21 15:33:00,
2013-07-21 11:38:00,81.4,74.3,30.03,WSW,237,2.9,6.9,79,0.00,OVC,,0.00,0.0,WeatherDisplay:10.37,2013-07-21 15:38:00,
2013-07-21 11:43:00,81.5,74.4,30.03,ENE,69,1.4,3.5,79,0.00,OVC,,0.00,0.0,WeatherDisplay:10.37,2013-07-21 15:43:00,
2013-07-21 11:48:00,81.8,75.0,30.03,SW,229,0.8,3.5,80,0.00,OVC,,0.00,0.0,WeatherDisplay:10.37,2013-07-21 15:48:00,
2013-07-21 11:53:00,82.4,75.2,30.03,SW,230,0.9,3.5,79,0.00,OVC,,0.00,0.0,WeatherDisplay:10.37,2013-07-21 15:53:00,
2013-07-21 11:58:00,82.7,75.1,30.03,SSW,208,3.7,4.6,78,0.00,OVC,,0.00,0.0,WeatherDisplay:10.37,2013-07-21 15:58:00,
2013-07-21 12:03:00,82.8,75.2,30.03,SSW,195,2.7,5.0,78,0.00,OVC,,0.00,0.0,WeatherDisplay:10.37,2013-07-21 16:03:00,
2013-07-21 12:08:00,82.9,74.9,30.03,SW,221,4.8,7.0,77,0.00,OVC,,0.00,0.0,WeatherDisplay:10.37,2013-07-21 16:08:00,
2013-07-21 12:13:00,83.0,74.6,30.03,WSW,253,4.0,7.0,76,0.00,OVC,,0.00,0.0,WeatherDisplay:10.37,2013-07-21 16:13:00,
2013-07-21 12:18:00,83.2,75.6,30.03,SSW,207,1.4,3.5,78,0.00,OVC,,0.00,0.0,WeatherDisplay:10.37,2013-07-21 16:18:00,
2013-07-21 12:23:00,83.5,74.7,30.02,SSW,211,6.8,9.2,75,0.00,OVC,,0.00,0.0,WeatherDisplay:10.37,2013-07-21 16:23:00,
2013-07-21 12:28:00,83.5,74.7,30.02,SSW,196,4.3,8.1,75,0.00,OVC,,0.00,0.0,WeatherDisplay:10.37,2013-07-21 16:28:00,
2013-07-21 12:33:00,83.8,75.8,30.02,West,278,3.0,4.0,77,0.00,OVC,,0.00,0.0,WeatherDisplay:10.37,2013-07-21 16:33:00,
2013-07-21 12:38:00,84.6,75.4,30.02,SSW,202,3.1,5.8,74,0.00,OVC,,0.00,0.0,WeatherDisplay:10.37,2013-07-21 16:38:00,
2013-07-21 12:43:00,84.7,75.1,30.02,SW,229,3.4,6.0,73,0.00,OVC,,0.00,0.0,WeatherDisplay:10.37,2013-07-21 16:43:00,
2013-07-21 12:48:00,84.6,75.8,30.02,SSW,192,4.9,7.0,75,0.00,OVC,,0.00,0.0,WeatherDisplay:10.37,2013-07-21 16:48:00,
2013-07-21 12:53:00,84.6,75.8,30.01,WSW,240,2.4,5.8,75,0.00,OVC,,0.00,0.0,WeatherDisplay:10.37,2013-07-21 16:53:00,
2013-07-21 12:58:00,84.6,75.0,30.01,WSW,255,3.6,5.8,73,0.00,OVC,,0.00,0.0,WeatherDisplay:10.37,2013-07-21 16:58:00,
2013-07-21 13:03:00,84.7,75.5,30.01,SSW,211,4.9,10.0,74,0.00,OVC,,0.00,0.0,WeatherDisplay:10.37,2013-07-21 17:03:00,
2013-07-21 13:09:00,85.1,75.1,30.01,SSW,210,5.0,5.8,72,0.00,OVC,,0.00,0.0,WeatherDisplay:10.37,2013-07-21 17:09:00,
2013-07-21 13:14:00,85.6,75.5,30.01,South,188,4.2,7.0,72,0.00,OVC,,0.00,0.0,WeatherDisplay:10.37,2013-07-21 17:14:00,
2013-07-21 13:19:00,85.4,75.8,30.01,South,187,2.6,4.6,73,0.00,OVC,,0.00,0.0,WeatherDisplay:10.37,2013-07-21 17:19:00,
2013-07-21 13:24:00,85.2,75.1,30.00,South,178,2.5,6.0,72,0.00,OVC,,0.00,0.0,WeatherDisplay:10.37,2013-07-21 17:24:00,
2013-07-21 13:29:00,85.0,75.4,30.00,West,269,3.2,5.8,73,0.00,OVC,,0.00,0.0,WeatherDisplay:10.37,2013-07-21 17:29:00,
2013-07-21 13:34:00,84.6,75.0,30.00,SW,229,3.4,9.2,73,0.00,OVC,,0.00,0.0,WeatherDisplay:10.37,2013-07-21 17:34:00,
2013-07-21 13:39:00,84.6,76.2,30.00,SW,226,4.2,9.0,76,0.00,OVC,,0.00,0.0,WeatherDisplay:10.37,2013-07-21 17:39:00,
2013-07-21 13:44:00,84.3,75.1,30.00,SW,229,4.9,6.0,74,0.00,OVC,,0.00,0.0,WeatherDisplay:10.37,2013-07-21 17:44:00,
2013-07-21 13:49:00,84.3,75.9,30.00,SSW,205,3.1,3.5,76,0.00,OVC,,0.00,0.0,WeatherDisplay:10.37,2013-07-21 17:49:00,
2013-07-21 13:54:00,84.3,75.5,30.00,West,263,2.2,4.6,75,0.00,OVC,,0.00,0.0,WeatherDisplay:10.37,2013-07-21 17:54:00,
2013-07-21 13:59:00,84.1,76.1,30.00,NW,319,3.7,5.8,77,0.00,OVC,,0.00,0.0,WeatherDisplay:10.37,2013-07-21 17:59:00,
2013-07-21 14:04:00,83.6,76.4,30.00,SW,235,2.0,5.0,79,0.00,OVC,,0.00,0.0,WeatherDisplay:10.37,2013-07-21 18:04:00,
2013-07-21 14:09:00,83.7,77.6,30.00,SSW,196,2.8,4.6,82,0.00,OVC,,0.00,0.0,WeatherDisplay:10.37,2013-07-21 18:09:00,
2013-07-21 14:14:00,84.6,77.0,29.99,WSW,238,5.6,6.9,78,0.00,OVC,,0.00,0.0,WeatherDisplay:10.37,2013-07-21 18:14:00,
2013-07-21 14:19:00,85.3,76.9,29.99,SW,217,1.4,2.3,76,0.00,OVC,,0.00,0.0,WeatherDisplay:10.37,2013-07-21 18:19:00,
2013-07-21 14:24:00,85.4,76.2,29.99,SW,217,2.8,5.8,74,0.00,OVC,,0.00,0.0,WeatherDisplay:10.37,2013-07-21 18:24:00,
2013-07-21 14:29:00,85.3,76.5,29.99,SW,229,1.4,3.5,75,0.00,OVC,,0.00,0.0,WeatherDisplay:10.37,2013-07-21 18:29:00,
2013-07-21 14:34:00,85.0,76.2,29.99,South,169,0.0,0.0,75,0.00,OVC,,0.00,0.0,WeatherDisplay:10.37,2013-07-21 18:34:00,
2013-07-21 14:39:00,84.9,77.3,29.99,SW,221,0.7,2.0,78,0.00,OVC,,0.00,0.0,WeatherDisplay:10.37,2013-07-21 18:39:00,
2013-07-21 14:44:00,84.5,77.6,29.98,NNW,344,0.0,2.3,80,0.00,OVC,,0.00,0.0,WeatherDisplay:10.37,2013-07-21 18:44:00,
2013-07-21 14:49:00,83.7,77.2,29.98,NW,315,0.0,0.0,81,0.00,OVC,,0.00,0.0,WeatherDisplay:10.37,2013-07-21 18:49:00,
2013-07-21 14:54:00,83.1,77.0,29.98,NW,317,0.0,0.0,82,0.00,OVC,,0.00,0.0,WeatherDisplay:10.37,2013-07-21 18:54:00,
2013-07-21 14:59:00,82.6,77.3,29.98,SW,215,0.0,1.1,84,0.01,RA,OVC,0.01,0.0,WeatherDisplay:10.37,2013-07-21 18:59:00,
2013-07-21 15:04:00,82.3,77.7,29.98,SSW,202,0.2,1.1,86,0.01,RA,OVC,0.01,0.0,WeatherDisplay:10.37,2013-07-21 19:04:00,
2013-07-21 15:09:00,82.3,77.7,29.98,WSW,255,1.2,3.5,86,0.01,OVC,,0.01,0.0,WeatherDisplay:10.37,2013-07-21 19:09:00,
2013-07-21 15:14:00,82.2,76.5,29.98,South,174,2.3,7.0,83,0.01,OVC,,0.01,0.0,WeatherDisplay:10.37,2013-07-21 19:14:00,
2013-07-21 15:19:00,82.1,76.8,29.98,SE,146,0.9,3.5,84,0.01,OVC,,0.01,0.0,WeatherDisplay:10.37,2013-07-21 19:19:00,
2013-07-21 15:24:00,82.3,77.0,29.98,South,180,1.3,4.0,84,0.01,OVC,,0.01,0.0,WeatherDisplay:10.37,2013-07-21 19:24:00,
2013-07-21 15:29:00,82.2,76.2,29.97,SSW,210,2.9,9.2,82,0.01,OVC,,0.01,0.0,WeatherDisplay:10.37,2013-07-21 19:29:00,
2013-07-21 15:34:00,81.8,76.5,29.97,SW,215,2.8,5.0,84,0.01,OVC,,0.01,0.0,WeatherDisplay:10.37,2013-07-21 19:34:00,
2013-07-21 15:39:00,81.2,75.5,29.97,SSW,194,4.9,9.2,83,0.01,OVC,,0.01,0.0,WeatherDisplay:10.37,2013-07-21 19:39:00,
2013-07-21 15:44:00,80.5,75.6,29.97,South,186,2.9,5.8,85,0.01,OVC,,0.01,0.0,WeatherDisplay:10.37,2013-07-21 19:44:00,
2013-07-21 15:49:00,79.9,75.7,29.97,South,173,1.4,3.5,87,0.01,OVC,,0.01,0.0,WeatherDisplay:10.37,2013-07-21 19:49:00,
2013-07-21 15:54:00,79.9,76.4,29.97,South,171,1.5,2.3,89,0.01,OVC,,0.01,0.0,WeatherDisplay:10.37,2013-07-21 19:54:00,
2013-07-21 15:59:00,79.7,75.8,29.97,South,177,1.0,4.6,88,0.00,OVC,,0.01,0.0,WeatherDisplay:10.37,2013-07-21 19:59:00,
2013-07-21 16:04:00,79.8,75.9,29.97,SW,233,1.2,3.5,88,0.00,OVC,,0.01,0.0,WeatherDisplay:10.37,2013-07-21 20:04:00,
2013-07-21 16:09:00,80.1,76.2,29.97,SSW,205,2.2,5.8,88,0.00,OVC,,0.01,0.0,WeatherDisplay:10.37,2013-07-21 20:09:00,
2013-07-21 16:14:00,80.5,76.3,29.96,WSW,244,0.6,4.0,87,0.00,OVC,,0.01,0.0,WeatherDisplay:10.37,2013-07-21 20:14:00,
2013-07-21 16:19:00,81.0,76.8,29.97,South,190,0.1,2.0,87,0.00,OVC,,0.01,0.0,WeatherDisplay:10.37,2013-07-21 20:19:00,
2013-07-21 16:24:00,82.0,76.7,29.96,SE,125,6.1,9.2,84,0.00,OVC,,0.01,0.0,WeatherDisplay:10.37,2013-07-21 20:24:00,
2013-07-21 16:29:00,82.6,76.5,29.96,South,169,4.1,8.1,82,0.00,OVC,,0.01,0.0,WeatherDisplay:10.37,2013-07-21 20:29:00,
2013-07-21 16:34:00,82.9,76.5,29.96,SW,219,4.4,5.8,81,0.00,OVC,,0.01,0.0,WeatherDisplay:10.37,2013-07-21 20:34:00,
2013-07-21 16:39:00,82.7,75.9,29.96,SE,144,4.9,9.2,80,0.00,OVC,,0.01,0.0,WeatherDisplay:10.37,2013-07-21 20:39:00,
2013-07-21 16:44:00,82.5,76.1,29.96,SW,223,2.3,6.9,81,0.00,OVC,,0.01,0.0,WeatherDisplay:10.37,2013-07-21 20:44:00,
2013-07-21 16:49:00,82.3,75.5,29.96,South,188,4.2,9.2,80,0.00,OVC,,0.01,0.0,WeatherDisplay:10.37,2013-07-21 20:49:00,
2013-07-21 16:54:00,82.3,75.9,29.96,SSE,154,3.1,5.8,81,0.00,OVC,,0.01,0.0,WeatherDisplay:10.37,2013-07-21 20:54:00,
2013-07-21 16:59:00,82.4,76.0,29.96,SSW,196,0.0,1.1,81,0.00,OVC,,0.01,0.0,WeatherDisplay:10.37,2013-07-21 20:59:00,
2013-07-21 17:04:00,82.5,76.1,29.95,SSW,192,2.8,6.0,81,0.00,OVC,,0.01,0.0,WeatherDisplay:10.37,2013-07-21 21:04:00,
2013-07-21 17:09:00,82.6,76.2,29.95,SW,229,0.6,2.3,81,0.00,OVC,,0.01,0.0,WeatherDisplay:10.37,2013-07-21 21:09:00,
2013-07-21 17:14:00,82.5,75.3,29.95,SSW,200,5.3,11.5,79,0.00,OVC,,0.01,0.0,WeatherDisplay:10.37,2013-07-21 21:14:00,
2013-07-21 17:19:00,82.7,75.5,29.95,SW,218,3.5,8.0,79,0.00,OVC,,0.01,0.0,WeatherDisplay:10.37,2013-07-21 21:19:00,
2013-07-21 17:24:00,83.2,75.6,29.95,SSW,202,2.7,5.8,78,0.00,OVC,,0.01,0.0,WeatherDisplay:10.37,2013-07-21 21:24:00,
2013-07-21 17:29:00,84.1,75.7,29.95,SSW,192,7.2,11.5,76,0.00,OVC,,0.01,0.0,WeatherDisplay:10.37,2013-07-21 21:29:00,
2013-07-21 17:30:00,84.1,75.7,29.95,SSW,200,7.0,11.5,76,0.00,OVC,,0.01,0.0,WeatherDisplay:10.37,2013-07-21 21:30:00,
2013-07-21 17:35:00,84.4,75.6,29.95,SSW,210,4.9,9.2,75,0.00,OVC,,0.01,0.0,WeatherDisplay:10.37,2013-07-21 21:35:00,
2013-07-21 17:40:00,84.4,75.6,29.95,SSW,197,4.9,8.1,75,0.00,OVC,,0.01,0.0,WeatherDisplay:10.37,2013-07-21 21:40:00,
2013-07-21 17:45:00,84.7,75.5,29.95,South,184,4.8,10.4,74,0.00,OVC,,0.01,0.0,WeatherDisplay:10.37,2013-07-21 21:45:00,
2013-07-21 17:50:00,84.7,75.5,29.95,WSW,240,8.2,12.0,74,0.00,OVC,,0.01,0.0,WeatherDisplay:10.37,2013-07-21 21:50:00,
2013-07-21 17:55:00,84.5,75.7,29.94,South,174,3.1,4.6,75,0.00,OVC,,0.01,0.0,WeatherDisplay:10.37,2013-07-21 21:55:00,
2013-07-21 18:00:00,84.5,75.7,29.94,South,184,3.1,9.0,75,0.00,OVC,,0.01,0.0,WeatherDisplay:10.37,2013-07-21 22:00:00,
2013-07-21 18:05:00,84.4,75.6,29.94,SW,229,5.3,8.1,75,0.00,OVC,,0.01,0.0,WeatherDisplay:10.37,2013-07-21 22:05:00,
2013-07-21 18:10:00,84.0,75.6,29.94,WSW,242,5.1,11.5,76,0.00,OVC,,0.01,0.0,WeatherDisplay:10.37,2013-07-21 22:10:00,
2013-07-21 18:15:00,83.6,75.2,29.94,South,188,4.5,9.2,76,0.00,OVC,,0.01,0.0,WeatherDisplay:10.37,2013-07-21 22:15:00,
2013-07-21 18:20:00,83.3,75.3,29.94,South,188,4.3,8.1,77,0.00,OVC,,0.01,0.0,WeatherDisplay:10.37,2013-07-21 22:20:00,
2013-07-21 18:25:00,83.4,75.4,29.94,WNW,290,5.7,9.2,77,0.00,OVC,,0.01,0.0,WeatherDisplay:10.37,2013-07-21 22:25:00,
2013-07-21 18:30:00,83.6,75.2,29.94,SE,128,4.7,10.4,76,0.00,OVC,,0.01,0.0,WeatherDisplay:10.37,2013-07-21 22:30:00,
2013-07-21 18:35:00,83.5,74.7,29.94,South,174,6.6,12.7,75,0.00,OVC,,0.01,0.0,WeatherDisplay:10.37,2013-07-21 22:35:00,
2013-07-21 18:40:00,83.3,74.9,29.95,SW,228,3.7,5.8,76,0.00,OVC,,0.01,0.0,WeatherDisplay:10.37,2013-07-21 22:40:00,
2013-07-21 18:45:00,83.0,75.0,29.95,SSE,155,4.4,8.1,77,0.00,OVC,,0.01,0.0,WeatherDisplay:10.37,2013-07-21 22:45:00,
2013-07-21 18:50:00,82.7,75.1,29.95,WNW,292,4.1,10.0,78,0.00,OVC,,0.01,0.0,WeatherDisplay:10.37,2013-07-21 22:50:00,
2013-07-21 18:55:00,82.3,75.1,29.95,SW,234,4.9,9.2,79,0.00,OVC,,0.01,0.0,WeatherDisplay:10.37,2013-07-21 22:55:00,
2013-07-21 19:00:00,82.1,75.3,29.95,SSW,193,4.9,10.4,80,0.00,OVC,,0.01,0.0,WeatherDisplay:10.37,2013-07-21 23:00:00,
2013-07-21 19:05:00,82.1,75.3,29.95,SW,234,4.7,8.1,80,0.00,OVC,,0.01,0.0,WeatherDisplay:10.37,2013-07-21 23:05:00,
2013-07-21 19:10:00,82.1,75.3,29.95,SSE,157,4.1,5.8,80,0.00,OVC,,0.01,0.0,WeatherDisplay:10.37,2013-07-21 23:10:00,
2013-07-21 19:15:00,82.1,75.7,29.95,South,180,5.0,9.2,81,0.00,OVC,,0.01,0.0,WeatherDisplay:10.37,2013-07-21 23:15:00,
2013-07-21 19:20:00,82.0,75.2,29.94,SSW,213,5.1,8.1,80,0.00,OVC,,0.01,0.0,WeatherDisplay:10.37,2013-07-21 23:20:00,
2013-07-21 19:25:00,81.9,75.5,29.94,South,190,4.2,9.2,81,0.00,OVC,,0.01,0.0,WeatherDisplay:10.37,2013-07-21 23:25:00,
2013-07-21 19:30:00,81.8,75.4,29.94,South,184,4.6,10.0,81,0.00,OVC,,0.01,0.0,WeatherDisplay:10.37,2013-07-21 23:30:00,
2013-07-21 19:35:00,81.7,75.3,29.95,SSW,204,2.3,8.1,81,0.00,OVC,,0.01,0.0,WeatherDisplay:10.37,2013-07-21 23:35:00,
2013-07-21 19:40:00,81.6,75.2,29.95,South,186,5.0,8.1,81,0.00,OVC,,0.01,0.0,WeatherDisplay:10.37,2013-07-21 23:40:00,
2013-07-21 19:45:00,81.3,75.3,29.95,South,170,3.2,5.8,82,0.00,OVC,,0.01,0.0,WeatherDisplay:10.37,2013-07-21 23:45:00,
2013-07-21 19:50:00,81.1,75.1,29.95,SW,219,2.3,5.8,82,0.00,OVC,,0.01,0.0,WeatherDisplay:10.37,2013-07-21 23:50:00,
2013-07-21 19:55:00,80.9,75.2,29.95,South,172,1.9,3.5,83,0.00,OVC,,0.01,0.0,WeatherDisplay:10.37,2013-07-21 23:55:00,
2013-07-21 20:00:00,80.7,75.1,29.96,South,169,1.1,3.5,83,0.00,OVC,,0.01,0.0,WeatherDisplay:10.37,2013-07-22 00:00:00,
2013-07-21 20:05:00,80.6,75.3,29.96,South,177,3.2,5.8,84,0.00,OVC,,0.01,0.0,WeatherDisplay:10.37,2013-07-22 00:05:00,
2013-07-21 20:10:00,80.4,75.1,29.97,SW,231,2.8,5.8,84,0.00,OVC,,0.01,0.0,WeatherDisplay:10.37,2013-07-22 00:10:00,
2013-07-21 20:15:00,80.3,75.0,29.97,SW,236,1.2,4.6,84,0.00,OVC,,0.01,0.0,WeatherDisplay:10.37,2013-07-22 00:15:00,
2013-07-21 20:20:00,80.2,75.3,29.96,South,184,2.3,8.0,85,0.00,OVC,,0.01,0.0,WeatherDisplay:10.37,2013-07-22 00:20:00,
2013-07-21 20:25:00,80.2,75.3,29.97,SW,224,1.0,2.3,85,0.00,OVC,,0.01,0.0,WeatherDisplay:10.37,2013-07-22 00:25:00,
2013-07-21 20:30:00,80.1,75.2,29.97,South,184,3.0,4.6,85,0.00,OVC,,0.01,0.0,WeatherDisplay:10.37,2013-07-22 00:30:00,
2013-07-21 20:35:00,80.1,75.2,29.97,SW,232,1.3,2.3,85,0.00,OVC,,0.01,0.0,WeatherDisplay:10.37,2013-07-22 00:35:00,
2013-07-21 20:41:00,79.9,75.0,29.97,SSW,198,2.0,3.5,85,0.00,OVC,,0.01,0.0,WeatherDisplay:10.37,2013-07-22 00:41:00,
2013-07-21 20:46:00,79.8,75.2,29.97,SSW,197,3.1,8.1,86,0.00,OVC,,0.01,0.0,WeatherDisplay:10.37,2013-07-22 00:46:00,
2013-07-21 20:51:00,79.7,75.1,29.97,SW,233,1.3,3.5,86,0.00,OVC,,0.01,0.0,WeatherDisplay:10.37,2013-07-22 00:51:00,
2013-07-21 20:56:00,79.6,75.0,29.97,SSW,194,3.1,4.0,86,0.00,CLR,OVC,0.01,0.0,WeatherDisplay:10.37,2013-07-22 00:56:00,
2013-07-21 21:01:00,79.5,75.3,29.97,SW,234,2.4,3.5,87,0.00,CLR,OVC,0.01,0.0,WeatherDisplay:10.37,2013-07-22 01:01:00,
2013-07-21 21:06:00,79.5,75.3,29.98,SSW,198,3.1,4.0,87,0.00,CLR,OVC,0.01,0.0,WeatherDisplay:10.37,2013-07-22 01:06:00,
2013-07-21 21:11:00,79.4,75.2,29.98,South,187,3.9,6.9,87,0.00,CLR,OVC,0.01,0.0,WeatherDisplay:10.37,2013-07-22 01:11:00,
2013-07-21 21:16:00,79.3,75.1,29.98,SSW,208,3.5,4.6,87,0.00,CLR,OVC,0.01,0.0,WeatherDisplay:10.37,2013-07-22 01:16:00,
2013-07-21 21:21:00,79.3,75.4,29.98,SSW,192,5.3,8.1,88,0.00,CLR,OVC,0.01,0.0,WeatherDisplay:10.37,2013-07-22 01:21:00,
2013-07-21 21:26:00,79.3,75.4,29.98,SSW,202,1.3,6.9,88,0.00,CLR,OVC,0.01,0.0,WeatherDisplay:10.37,2013-07-22 01:26:00,
2013-07-21 21:31:00,79.3,75.4,29.98,SW,219,4.1,8.1,88,0.00,CLR,OVC,0.01,0.0,WeatherDisplay:10.37,2013-07-22 01:31:00,
2013-07-21 21:36:00,79.2,75.3,29.97,SW,227,2.2,6.9,88,0.00,CLR,OVC,0.01,0.0,WeatherDisplay:10.37,2013-07-22 01:36:00,
2013-07-21 21:41:00,79.2,75.3,29.97,SW,224,4.8,6.9,88,0.00,CLR,OVC,0.01,0.0,WeatherDisplay:10.37,2013-07-22 01:41:00,
2013-07-21 21:46:00,79.1,75.2,29.97,West,266,2.5,4.0,88,0.00,CLR,OVC,0.01,0.0,WeatherDisplay:10.37,2013-07-22 01:46:00,
2013-07-21 21:51:00,79.1,75.2,29.97,South,177,1.6,3.5,88,0.00,CLR,OVC,0.01,0.0,WeatherDisplay:10.37,2013-07-22 01:51:00,
2013-07-21 21:56:00,79.0,75.1,29.98,SSW,211,3.5,4.6,88,0.00,CLR,OVC,0.01,0.0,WeatherDisplay:10.37,2013-07-22 01:56:00,
2013-07-21 22:01:00,78.9,75.0,29.98,SSW,200,4.5,9.2,88,0.00,CLR,OVC,0.01,0.0,WeatherDisplay:10.37,2013-07-22 02:01:00,
2013-07-21 22:06:00,78.8,75.3,29.98,WSW,250,0.6,3.5,89,0.00,CLR,OVC,0.01,0.0,WeatherDisplay:10.37,2013-07-22 02:06:00,
2013-07-21 22:11:00,78.7,75.2,29.98,SW,230,1.6,3.5,89,0.00,CLR,OVC,0.01,0.0,WeatherDisplay:10.37,2013-07-22 02:11:00,
2013-07-21 22:16:00,78.7,75.2,29.98,SSW,201,0.7,2.3,89,0.00,CLR,OVC,0.01,0.0,WeatherDisplay:10.37,2013-07-22 02:16:00,
2013-07-21 22:21:00,78.6,75.1,29.99,South,173,2.4,7.0,89,0.00,CLR,OVC,0.01,0.0,WeatherDisplay:10.37,2013-07-22 02:21:00,
2013-07-21 22:26:00,78.5,75.0,29.98,SSW,198,1.5,3.5,89,0.00,CLR,OVC,0.01,0.0,WeatherDisplay:10.37,2013-07-22 02:26:00,
2013-07-21 22:31:00,78.5,75.0,29.98,SSW,200,2.8,4.6,89,0.00,CLR,OVC,0.01,0.0,WeatherDisplay:10.37,2013-07-22 02:31:00,
2013-07-21 22:36:00,78.5,75.0,29.99,SW,217,1.1,3.5,89,0.00,CLR,OVC,0.01,0.0,WeatherDisplay:10.37,2013-07-22 02:36:00,
2013-07-21 22:41:00,78.5,75.0,29.99,SW,234,4.3,9.2,89,0.00,CLR,OVC,0.01,0.0,WeatherDisplay:10.37,2013-07-22 02:41:00,
2013-07-21 22:46:00,78.5,75.0,29.99,South,178,0.4,3.5,89,0.00,CLR,OVC,0.01,0.0,WeatherDisplay:10.37,2013-07-22 02:46:00,
2013-07-21 22:51:00,78.5,75.0,29.99,South,179,0.9,3.5,89,0.00,CLR,OVC,0.01,0.0,WeatherDisplay:10.37,2013-07-22 02:51:00,
2013-07-21 22:56:00,78.4,74.9,29.99,SW,217,1.3,3.5,89,0.00,CLR,OVC,0.01,0.0,WeatherDisplay:10.37,2013-07-22 02:56:00,
2013-07-21 23:01:00,78.4,74.9,29.99,WSW,252,0.9,2.3,89,0.00,CLR,OVC,0.01,0.0,WeatherDisplay:10.37,2013-07-22 03:01:00,
2013-07-21 23:06:00,78.4,74.9,29.98,SSW,207,3.0,4.6,89,0.00,CLR,OVC,0.01,0.0,WeatherDisplay:10.37,2013-07-22 03:06:00,
2013-07-21 23:11:00,78.4,74.9,29.98,SSW,211,0.3,3.5,89,0.00,CLR,OVC,0.01,0.0,WeatherDisplay:10.37,2013-07-22 03:11:00,
2013-07-21 23:16:00,78.3,74.8,29.98,South,180,1.9,2.3,89,0.00,CLR,OVC,0.01,0.0,WeatherDisplay:10.37,2013-07-22 03:16:00,
2013-07-21 23:21:00,78.2,75.0,29.98,SSW,204,2.3,3.5,90,0.00,CLR,OVC,0.01,0.0,WeatherDisplay:10.37,2013-07-22 03:21:00,
2013-07-21 23:26:00,78.1,74.9,29.99,SW,225,3.0,4.6,90,0.00,CLR,OVC,0.01,0.0,WeatherDisplay:10.37,2013-07-22 03:26:00,
2013-07-21 23:31:00,78.1,74.9,29.99,SSW,202,1.5,5.8,90,0.00,CLR,OVC,0.01,0.0,WeatherDisplay:10.37,2013-07-22 03:31:00,
2013-07-21 23:36:00,78.0,74.8,29.99,South,177,1.5,3.5,90,0.00,CLR,OVC,0.01,0.0,WeatherDisplay:10.37,2013-07-22 03:36:00,
2013-07-21 23:41:00,78.0,74.8,29.99,SSW,192,2.4,3.5,90,0.00,CLR,OVC,0.01,0.0,WeatherDisplay:10.37,2013-07-22 03:41:00,
2013-07-21 23:46:00,77.9,74.7,29.98,SW,215,0.8,3.5,90,0.00,CLR,OVC,0.01,0.0,WeatherDisplay:10.37,2013-07-22 03:46:00,
2013-07-21 23:51:00,77.9,74.7,29.98,SW,234,2.4,3.5,90,0.00,CLR,OVC,0.01,0.0,WeatherDisplay:10.37,2013-07-22 03:51:00,
2013-07-21 23:56:00,77.8,74.6,29.98,WSW,238,2.3,3.5,90,0.00,CLR,OVC,0.01,0.0,WeatherDisplay:10.37,2013-07-22 03:56:00,